Regional Weather Roundup
Issued by NWS

Home | Current Version | Previous Version | Text Only | Print | Product List | Glossary Off
Versions: 1 2 3 4 5 6 7 8 9 10 11 12 13 14 15 16 17 18 19 20 21 22 23 24 25 26 27 28 29 30 31 32 33 34 35 36 37 38 39 40 41 42 43 44 45 46 47 48 49 50

434
ASUS43 KBIS 271710
RWRND

NORTH DAKOTA REGIONAL WEATHER ROUNDUP
NATIONAL WEATHER SERVICE BISMARCK ND
1100 AM CST MON FEB 27 2017

NOTE: "FAIR" INDICATES FEW OR NO CLOUDS BELOW 12,000 FEET WITH NO
SIGNIFICANT WEATHER AND/OR OBSTRUCTIONS TO VISIBILITY.


NDZ001>003-009>011-017-271800-
NORTHWEST NORTH DAKOTA

CITY           SKY/WX    TMP DP  RH WIND       PRES   REMARKS
WILLISTON      LGT SNOW  11   6  81 NE12      29.85R WCI  -3
MINOT          LGT SNOW  12   6  77 NW12      29.86S WCI  -2
MINOT AFB      FLURRIES  11   5  77 NW9       29.86R WCI  -2
$$

NDZ018>021-031>035-040>046-271800-
SOUTHWEST NORTH DAKOTA

CITY           SKY/WX    TMP DP  RH WIND       PRES   REMARKS
BISMARCK       CLOUDY    19  15  84 NE8       29.83R WCI   9
DICKINSON      CLOUDY    18  14  84 NE14      29.71F FOG     WCI   4
GARRISON         N/A     15  10  80 NE8       29.84R WCI   4
HETTINGER ARPT CLOUDY    22  20  92 SE9       29.70F WCI  12
$$

NDZ004>008-012>016-024-026-027-054-271800-
NORTHEAST NORTH DAKOTA

CITY           SKY/WX    TMP DP  RH WIND       PRES   REMARKS
GRAND FORKS    CLOUDY    21  13  71 S3        29.91R
GRND FRKS AFB  MOSUNNY   21  13  70 S3        29.91R
DEVILS LAKE    LGT SNOW  15  12  88 NW8       29.87R FOG     WCI   4
$$

NDZ022-023-025-028>030-036>039-047>053-271800-
SOUTHEAST NORTH DAKOTA

CITY           SKY/WX    TMP DP  RH WIND       PRES   REMARKS
FARGO            N/A     26  16  65 SE6       29.90R WCI  19
JAMESTOWN      CLOUDY    23  16  74 SE7       29.85R WCI  15
$$





USA.gov is the U.S. government's official web portal to all federal, state and local government web resources and services.